KC5KKT-1 Weather Reports


time (UTC)temp
C
wind
direction
speed
KPH
gust
KPH
rain 1hr
cm
rain 24hr
cm
rain mn
cm
humidity
%
barometer
mb
20220524022004 21 235 4.8 12.9 0.00 0.00 0.00 84 1013.4
20220524021504 21 232 4.8 8.0 0.00 0.00 0.00 84 1013.6
20220524021004 21 229 3.2 8.0 0.00 0.00 0.00 84 1013.6
20220524020503 21 216 1.6 6.4 0.00 0.00 0.00 84 1013.5
20220524020004 21 213 1.6 6.4 0.00 0.00 0.00 84 1013.5
20220524015504 21 211 1.6 6.4 0.00 0.00 0.00 84 1013.5
20220524015003 21 212 1.6 8.0 0.00 0.00 0.00 84 1013.3
20220524014504 21 212 1.6 8.0 0.00 0.00 0.00 83 1013.1
20220524014004 21 212 1.6 8.0 0.00 0.00 0.00 83 1013.1
20220524013503 21 213 1.6 8.0 0.00 0.00 0.00 83 1013.0
20220524013004 21 209 1.6 11.3 0.00 0.00 0.00 83 1013.0
20220524012504 21 210 1.6 11.3 0.00 0.00 0.00 82 1013.0
20220524012003 21 210 1.6 9.7 0.00 0.00 0.00 82 1012.9
20220524011504 21 207 1.6 11.3 0.00 0.00 0.00 82 1013.0
20220524011004 21 210 1.6 11.3 0.00 0.00 0.00 82 1012.9
20220524010503 21 209 1.6 6.4 0.00 0.00 0.00 81 1012.9
20220524010004 21 212 3.2 8.0 0.00 0.00 0.00 81 1013.1
20220524005504 21 214 3.2 8.0 0.00 0.00 0.00 81 1013.1
20220524005003 21 214 3.2 9.7 0.00 0.00 0.00 81 1013.2
20220524004504 21 215 3.2 9.7 0.00 0.00 0.00 81 1013.3
20220524004004 21 213 1.6 9.7 0.00 0.00 0.00 80 1013.5
20220524003503 21 211 1.6 8.0 0.00 0.00 0.00 80 1013.5
20220524003004 21 212 3.2 9.7 0.00 0.00 0.00 80 1013.3
20220524002503 21 210 3.2 9.7 0.00 0.00 0.00 80 1013.3
20220524002004 21 213 3.2 8.0 0.00 0.00 0.00 80 1013.3
20220524001504 21 215 3.2 8.0 0.00 0.00 0.00 80 1013.3
20220524001004 21 212 1.6 8.0 0.00 0.00 0.00 80 1013.4
20220524000503 21 199 1.6 6.4 0.00 0.00 0.00 81 1013.5
20220524000007 21 192 0.0 6.4 0.00 0.00 0.00 82 1013.7
20220523235504 21 116 0.0 3.2 0.00 0.00 0.00 83 1013.6
20220523235003 21 105 0.0 3.2 0.00 0.00 0.00 83 1013.7
20220523234504 21 102 1.6 6.4 0.00 0.00 0.00 83 1013.9
20220523234004 21 105 1.6 6.4 0.00 0.00 0.00 83 1013.9
20220523233503 21 105 0.0 4.8 0.00 0.00 0.00 83 1014.1
20220523233004 21 98 0.0 3.2 0.00 0.00 0.00 83 1014.2
20220523232504 21 97 0.0 3.2 0.00 0.00 0.00 83 1014.4
20220523232003 21 93 0.0 4.8 0.00 0.00 0.00 82 1014.4
20220523231504 21 88 1.6 4.8 0.00 0.00 0.00 82 1014.4
20220523231004 21 84 3.2 6.4 0.00 0.00 0.00 81 1014.4
20220523230503 21 81 1.6 6.4 0.00 0.00 0.00 80 1014.3
20220523230004 22 81 0.0 6.4 0.00 0.00 0.00 79 1014.5
20220523225504 22 0 0.0 0.0 0.00 0.00 0.00 78 1014.4
20220523225003 22 0 0.0 0.0 0.00 0.00 0.00 78 1014.5
20220523224504 22 114 0.0 3.2 0.00 0.00 0.00 78 1014.6
20220523224004 22 132 0.0 3.2 0.00 0.00 0.00 77 1014.7
20220523223503 22 222 0.0 4.8 0.00 0.00 0.00 76 1014.7
20220523223004 22 221 0.0 4.8 0.00 0.00 0.00 76 1014.9
20220523222504 22 213 0.0 4.8 0.00 0.00 0.00 75 1014.8
20220523222003 22 210 0.0 3.2 0.00 0.00 0.00 75 1014.7
20220523221504 22 232 1.6 9.7 0.00 0.00 0.00 76 1014.7
20220523221004 22 232 1.6 11.3 0.00 0.00 0.00 75 1014.7
20220523220503 23 218 1.6 11.3 0.00 0.00 0.00 76 1014.7
20220523220004 22 223 4.8 11.3 0.00 0.00 0.00 76 1014.6
20220523215504 22 220 4.8 12.9 0.00 0.00 0.00 75 1014.4
20220523215003 22 210 3.2 12.9 0.00 0.00 0.00 75 1014.4
20220523214504 22 219 3.2 9.7 0.00 0.00 0.00 74 1014.5
20220523214004 22 228 3.2 8.0 0.00 0.00 0.00 76 1014.6
20220523213503 22 215 3.2 14.5 0.00 0.00 0.00 77 1014.6
20220523213004 22 205 3.2 14.5 0.00 0.00 0.00 75 1014.4
20220523212504 22 216 3.2 9.7 0.00 0.00 0.00 76 1014.6
20220523212003 22 226 3.2 9.7 0.00 0.00 0.00 77 1014.7
20220523211504 22 217 1.6 9.7 0.00 0.00 0.00 76 1014.7
20220523211004 22 202 1.6 6.4 0.00 0.00 0.00 76 1014.9
20220523210503 22 205 3.2 8.0 0.00 0.00 0.00 77 1015.0
20220523210004 22 211 3.2 9.7 0.00 0.00 0.00 77 1014.9
20220523205504 22 207 3.2 11.3 0.00 0.00 0.00 76 1015.0
20220523205003 22 204 1.6 11.3 0.00 0.00 0.00 76 1015.2
20220523204504 22 225 1.6 4.8 0.00 0.00 0.00 76 1015.4
20220523204003 22 242 1.6 9.7 0.00 0.00 0.00 77 1015.5
20220523203503 22 232 3.2 12.9 0.00 0.00 0.00 77 1015.5
20220523203004 22 228 4.8 12.9 0.00 0.00 0.00 76 1015.5
20220523202503 22 229 6.4 12.9 0.00 0.00 0.00 77 1015.6
20220523202003 22 227 8.0 17.7 0.00 0.00 0.00 76 1015.6
20220523201504 22 226 8.0 19.3 0.00 0.00 0.00 78 1015.6
20220523201003 22 221 6.4 19.3 0.00 0.00 0.00 77 1015.6
20220523200503 22 220 6.4 22.5 0.00 0.00 0.00 76 1015.7
20220523200004 21 222 8.0 22.5 0.00 0.00 0.00 78 1015.7
20220523195503 22 221 6.4 14.5 0.00 0.00 0.00 78 1016.0
20220523195003 22 220 8.0 17.7 0.00 0.00 0.00 78 1015.9
20220523194504 21 222 11.3 20.9 0.00 0.00 0.00 80 1015.9
20220523194003 21 225 12.9 22.5 0.00 0.00 0.00 80 1015.9
20220523193503 21 226 14.5 22.5 0.00 0.00 0.00 80 1016.0
20220523193004 21 225 14.5 29.0 0.00 0.00 0.00 80 1016.2
20220523192504 21 227 14.5 29.0 0.00 0.00 0.00 81 1016.2
20220523192003 20 227 14.5 20.9 0.00 0.00 0.00 82 1016.3
20220523191504 20 228 14.5 20.9 0.00 0.00 0.00 85 1016.6
20220523191003 20 225 12.9 20.9 0.00 0.00 0.00 85 1016.7
20220523190503 19 222 12.9 20.9 0.00 0.00 0.00 85 1016.9
20220523190004 19 224 11.3 19.3 0.00 0.00 0.00 86 1017.0
20220523185503 19 219 11.3 19.3 0.00 0.00 0.00 85 1017.1
20220523185003 18 223 11.3 19.3 0.00 0.00 0.00 86 1017.1
20220523184504 18 226 12.9 20.9 0.00 0.00 0.00 87 1017.2
20220523184003 18 229 12.9 20.9 0.00 0.00 0.00 87 1017.4
20220523183503 18 228 11.3 19.3 0.00 0.00 0.00 89 1017.4
20220523183004 18 220 9.7 17.7 0.00 0.00 0.00 88 1017.6
20220523182503 17 224 11.3 17.7 0.00 0.00 0.00 89 1017.8
20220523182003 17 228 9.7 17.7 0.00 0.00 0.00 89 1017.9
20220523181504 17 229 9.7 16.1 0.00 0.00 0.00 90 1017.8
20220523181003 17 228 9.7 16.1 0.00 0.00 0.00 91 1017.9
20220523180503 17 225 9.7 16.1 0.00 0.00 0.00 91 1018.0
20220523180004 17 219 8.0 16.1 0.00 0.00 0.00 91 1017.8
20220523175503 17 218 8.0 17.7 0.00 0.00 0.00 91 1018.0
20220523175003 17 221 8.0 17.7 0.00 0.00 0.00 92 1018.0
20220523174504 17 219 8.0 17.7 0.00 0.00 0.00 92 1018.1
20220523174003 16 215 8.0 17.7 0.00 0.00 0.00 92 1018.1
20220523173503 16 215 4.8 14.5 0.00 0.00 0.00 92 1018.2
20220523173004 17 221 6.4 16.1 0.00 0.00 0.00 93 1018.1
20220523172503 16 221 6.4 16.1 0.00 0.00 0.00 93 1018.1
20220523172003 16 213 6.4 12.9 0.00 0.00 0.00 94 1018.2
20220523171504 16 209 6.4 12.9 0.00 0.00 0.00 94 1018.2
20220523171003 16 215 6.4 12.9 0.00 0.00 0.00 94 1018.2
20220523170503 16 215 6.4 12.9 0.00 0.00 0.00 94 1018.5
20220523170004 16 209 4.8 12.9 0.00 0.00 0.00 94 1018.7
20220523165503 16 206 3.2 9.7 0.00 0.00 0.00 94 1018.8
20220523165003 16 201 1.6 9.7 0.00 0.00 0.00 95 1018.8
20220523164504 16 210 3.2 11.3 0.00 0.00 0.00 95 1018.9
20220523164003 16 210 3.2 11.3 0.00 0.00 0.00 95 1018.9
20220523163503 16 208 1.6 9.7 0.00 0.00 0.00 96 1019.1
20220523163004 16 196 1.6 8.0 0.00 0.00 0.00 96 1019.2
20220523162503 16 198 1.6 8.0 0.00 0.00 0.00 96 1019.3
20220523162004 16 209 3.2 9.7 0.00 0.00 0.00 96 1019.5
20220523161505 16 202 1.6 9.7 0.00 0.00 0.00 95 1019.8
20220523161004 16 163 1.6 6.4 0.00 0.00 0.00 96 1019.9
20220523160504 16 182 0.0 4.8 0.00 0.00 0.00 96 1019.8
20220523160005 16 167 0.0 4.8 0.00 0.00 0.00 96 1019.8
20220523155504 15 197 1.6 6.4 0.00 0.00 0.00 96 1019.9
20220523155004 15 208 1.6 9.7 0.00 0.00 0.00 96 1019.7
20220523154505 15 215 1.6 9.7 0.00 0.00 0.00 96 1019.9
20220523154004 15 215 3.2 8.0 0.00 0.00 0.00 96 1019.8
20220523153504 15 212 3.2 8.0 0.00 0.00 0.00 96 1019.7
20220523153005 15 215 3.2 11.3 0.00 0.00 0.00 96 1019.9
20220523152504 15 220 3.2 11.3 0.00 0.00 0.00 96 1019.7
20220523152004 15 222 1.6 6.4 0.00 0.00 0.00 96 1019.7
20220523151505 15 218 1.6 4.8 0.00 0.00 0.00 97 1019.8
20220523151004 15 218 1.6 6.4 0.00 0.00 0.00 97 1019.9
20220523150504 15 219 1.6 6.4 0.00 0.00 0.00 96 1019.8
20220523150005 15 225 3.2 9.7 0.00 0.00 0.00 97 1019.9
20220523145504 15 226 3.2 9.7 0.00 0.00 0.00 97 1019.8
20220523145004 15 218 0.0 3.2 0.00 0.00 0.00 97 1020.1
20220523144506 15 219 0.0 3.2 0.00 0.00 0.00 97 1020.1
20220523144004 15 225 0.0 3.2 0.00 0.00 0.00 97 1020.1
20220523143504 15 213 1.6 4.8 0.00 0.00 0.00 97 1019.9
20220523143005 15 211 3.2 8.0 0.00 0.00 0.00 97 1020.0
20220523142504 15 214 3.2 8.0 0.00 0.00 0.00 96 1019.9
20220523142004 15 211 1.6 4.8 0.00 0.00 0.00 96 1020.0
20220523141505 15 205 1.6 4.8 0.00 0.00 0.00 97 1019.9
20220523141004 15 208 1.6 4.8 0.00 0.00 0.00 96 1019.9
20220523140504 15 210 1.6 6.4 0.00 0.00 0.00 97 1019.9
20220523140005 15 216 3.2 8.0 0.00 0.00 0.00 97 1019.8
20220523135504 15 218 3.2 8.0 0.00 0.00 0.00 97 1019.9
20220523135004 15 216 1.6 6.4 0.00 0.00 0.00 97 1020.0
20220523134505 15 214 1.6 4.8 0.00 0.00 0.00 97 1020.3
20220523134004 15 212 1.6 6.4 0.00 0.00 0.00 97 1020.3
20220523133504 15 212 1.6 6.4 0.00 0.00 0.00 97 1020.3
20220523133005 15 213 1.6 6.4 0.00 0.00 0.00 97 1020.2
20220523132504 15 218 1.6 4.8 0.00 0.00 0.00 97 1020.2
20220523132004 15 202 0.0 4.8 0.00 0.00 0.00 97 1020.1
20220523131505 15 210 1.6 4.8 0.00 0.00 0.00 97 1020.0
20220523131004 15 213 1.6 8.0 0.00 0.00 0.00 97 1020.0
20220523130504 15 208 1.6 8.0 0.00 0.00 0.00 97 1019.8
20220523130005 15 211 3.2 8.0 0.00 0.00 0.00 97 1019.6
20220523125504 15 220 1.6 6.4 0.00 0.00 0.00 97 1019.6
20220523125004 15 214 1.6 8.0 0.00 0.00 0.00 97 1019.6
20220523124505 15 210 1.6 8.0 0.00 0.00 0.00 97 1019.7
20220523124004 15 218 1.6 6.4 0.00 0.00 0.00 97 1019.8
20220523123504 15 213 1.6 6.4 0.00 0.00 0.00 97 1019.9
20220523123005 15 213 1.6 8.0 0.00 0.00 0.00 97 1019.9
20220523122504 15 218 1.6 8.0 0.00 0.00 0.00 97 1020.0
20220523122004 15 213 1.6 6.4 0.00 0.00 0.00 97 1019.9
20220523121505 15 214 1.6 6.4 0.00 0.00 0.00 97 1019.8
20220523121004 15 216 1.6 6.4 0.00 0.00 0.00 97 1019.7
20220523120504 15 213 1.6 6.4 0.00 0.00 0.00 97 1019.6
20220523120005 15 213 3.2 6.4 0.00 0.00 0.00 97 1019.5
20220523115504 15 216 1.6 6.4 0.00 0.00 0.00 97 1019.5
20220523115004 15 210 1.6 6.4 0.00 0.00 0.00 97 1019.6
20220523114504 15 210 1.6 6.4 0.00 0.00 0.00 97 1019.6
20220523114004 15 220 1.6 6.4 0.00 0.00 0.00 97 1019.6
20220523113504 15 221 1.6 4.8 0.00 0.00 0.00 97 1019.6
20220523113005 15 215 0.0 4.8 0.00 0.00 0.00 97 1019.5
20220523112504 15 214 1.6 6.4 0.00 0.00 0.00 97 1019.5
20220523112004 15 216 1.6 6.4 0.00 0.00 0.00 97 1019.5
20220523111505 15 216 1.6 4.8 0.00 0.00 0.00 97 1019.7
20220523111004 15 215 1.6 4.8 0.00 0.00 0.00 97 1019.6
20220523110505 14 213 1.6 6.4 0.00 0.00 0.00 97 1019.4
20220523110005 14 214 3.2 9.7 0.00 0.00 0.00 97 1019.4
20220523105504 14 215 3.2 9.7 0.00 0.00 0.00 97 1019.2
20220523105004 14 215 1.6 6.4 0.00 0.00 0.00 97 1019.2
20220523104505 14 215 0.0 3.2 0.00 0.00 0.00 97 1019.4
20220523104004 14 221 1.6 6.4 0.00 0.00 0.00 97 1019.3
20220523103504 14 220 1.6 6.4 0.00 0.00 0.00 97 1019.2
20220523103005 14 212 3.2 8.0 0.00 0.00 0.00 97 1019.1
20220523102504 14 211 3.2 9.7 0.00 0.00 0.00 97 1019.0
20220523102004 14 214 3.2 9.7 0.00 0.00 0.00 97 1019.0
20220523101505 14 208 1.6 6.4 0.00 0.00 0.00 97 1019.2
20220523101004 14 215 1.6 6.4 0.00 0.00 0.00 97 1019.1
20220523100504 14 215 3.2 9.7 0.00 0.00 0.00 97 1019.1
20220523100006 14 213 4.8 12.9 0.00 0.00 0.00 96 1019.0
20220523095504 14 213 4.8 12.9 0.00 0.00 0.00 96 1019.0
20220523095004 14 209 3.2 11.3 0.00 0.00 0.00 96 1019.2
20220523094505 14 209 4.8 11.3 0.00 0.00 0.00 97 1019.3
20220523094004 14 214 3.2 8.0 0.00 0.00 0.00 97 1019.2
20220523093504 14 220 1.6 8.0 0.00 0.00 0.00 97 1019.5
20220523093005 14 119 0.0 3.2 0.00 0.00 0.00 97 1019.7
20220523092504 14 110 0.0 4.8 0.00 0.00 0.00 96 1019.7
20220523092004 14 116 0.0 4.8 0.00 0.00 0.00 96 1019.7
20220523091504 14 112 0.0 3.2 0.00 0.00 0.00 96 1019.7
20220523091004 14 105 0.0 3.2 0.00 0.00 0.00 96 1019.7
20220523090504 14 111 0.0 3.2 0.00 0.00 0.00 96 1019.8
20220523090005 14 123 0.0 3.2 0.00 0.00 0.00 96 1019.9
20220523085504 14 50 0.0 1.6 0.00 0.00 0.00 96 1019.8
20220523085004 14 78 0.0 1.6 0.00 0.00 0.00 96 1019.9
20220523084505 14 91 0.0 1.6 0.00 0.00 0.00 96 1020.1
20220523084004 14 110 0.0 3.2 0.00 0.00 0.00 96 1020.2
20220523083505 14 116 0.0 3.2 0.00 0.00 0.00 96 1020.4
20220523083005 14 104 0.0 3.2 0.00 0.00 0.00 96 1020.3
20220523082504 14 95 0.0 1.6 0.00 0.00 0.00 96 1020.2
20220523082004 14 107 0.0 1.6 0.00 0.00 0.00 96 1020.3
20220523081505 14 137 0.0 4.8 0.00 0.00 0.00 96 1020.3
20220523081004 14 152 0.0 4.8 0.00 0.00 0.00 96 1020.2
20220523080505 14 193 0.0 3.2 0.00 0.00 0.00 96 1020.3
20220523080005 14 197 0.0 3.2 0.00 0.00 0.00 96 1020.4
20220523075504 14 146 0.0 3.2 0.00 0.00 0.00 96 1020.4
20220523075004 14 104 0.0 3.2 0.00 0.00 0.00 96 1020.6
20220523074504 14 104 0.0 3.2 0.00 0.00 0.00 96 1020.8
20220523074005 14 97 0.0 1.6 0.00 0.00 0.00 96 1020.8
20220523073504 14 109 0.0 3.2 0.00 0.00 0.00 96 1020.8
20220523073005 14 115 0.0 3.2 0.00 0.00 0.00 96 1020.9
20220523072504 14 125 0.0 3.2 0.00 0.00 0.00 96 1020.9
20220523072004 14 115 0.0 3.2 0.00 0.00 0.00 96 1020.9
20220523071504 14 99 0.0 4.8 0.00 0.00 0.00 96 1021.0
20220523071004 13 104 0.0 4.8 0.00 0.00 0.00 96 1021.0
20220523070504 13 113 0.0 3.2 0.00 0.00 0.00 96 1021.0
20220523070005 13 108 0.0 6.4 0.00 0.00 0.00 96 1021.1
20220523065504 13 103 1.6 6.4 0.00 0.00 0.00 95 1021.1
20220523065004 13 99 0.0 4.8 0.00 0.00 0.00 95 1021.0
20220523064505 13 108 0.0 3.2 0.00 0.00 0.00 95 1021.1
20220523064004 13 107 0.0 3.2 0.00 0.00 0.00 95 1021.1
20220523063505 13 107 0.0 3.2 0.00 0.00 0.00 95 1021.2
20220523063005 13 125 0.0 1.6 0.00 0.00 0.00 95 1021.0
20220523062505 13 152 0.0 3.2 0.00 0.00 0.00 95 1021.2
20220523062004 13 182 0.0 4.8 0.00 0.00 0.00 95 1021.1
20220523061505 13 193 0.0 4.8 0.00 0.00 0.00 95 1020.8
20220523061004 13 164 0.0 4.8 0.00 0.00 0.00 95 1020.9
20220523060504 13 165 0.0 3.2 0.00 0.00 0.00 95 1020.8
20220523060005 13 119 0.0 4.8 0.00 0.00 0.00 95 1020.9
20220523055504 13 199 1.6 4.8 0.00 0.00 0.00 95 1020.9
20220523055004 13 212 1.6 4.8 0.00 0.00 0.00 95 1021.0
20220523054504 13 92 0.0 6.4 0.00 0.00 0.00 95 1021.2
20220523054004 13 104 0.0 6.4 0.00 0.00 0.00 94 1021.2
20220523053504 13 181 0.0 6.4 0.00 0.00 0.00 94 1021.0
20220523053005 13 211 1.6 4.8 0.00 0.00 0.00 94 1020.9
20220523052504 13 205 0.0 3.2 0.00 0.00 0.00 94 1020.8
20220523052004 13 182 0.0 3.2 0.00 0.00 0.00 94 1021.0
20220523051505 13 186 0.0 3.2 0.00 0.00 0.00 94 1021.1
20220523051005 13 226 0.0 3.2 0.00 0.00 0.00 94 1021.1
20220523050504 13 220 0.0 3.2 0.00 0.00 0.00 94 1021.2
20220523050007 13 216 1.6 6.4 0.00 0.00 0.00 94 1021.2
20220523045505 13 215 0.0 6.4 0.00 0.00 0.00 93 1021.3
20220523045004 13 200 0.0 6.4 0.00 0.00 0.00 93 1021.3
20220523044504 13 198 1.6 6.4 0.00 0.00 0.00 93 1021.3
20220523044004 13 208 1.6 4.8 0.00 0.00 0.00 93 1021.3
20220523043505 14 216 0.0 3.2 0.00 0.00 0.00 93 1021.4
20220523043005 14 213 0.0 3.2 0.00 0.00 0.00 93 1021.5
20220523042505 14 197 0.0 3.2 0.00 0.00 0.00 92 1021.5
20220523042005 14 209 0.0 3.2 0.00 0.00 0.00 92 1021.5
20220523041504 14 211 0.0 3.2 0.00 0.00 0.00 92 1021.5
20220523041004 14 219 1.6 8.0 0.00 0.00 0.00 91 1021.5
20220523040504 14 211 1.6 8.0 0.00 0.00 0.00 91 1021.5
20220523040005 14 205 1.6 9.7 0.00 0.00 0.00 91 1021.6
20220523035505 14 207 3.2 9.7 0.00 0.00 0.00 90 1021.7
20220523035005 14 207 3.2 9.7 0.00 0.00 0.00 90 1021.8
20220523034504 14 208 3.2 14.5 0.00 0.00 0.00 89 1021.8
20220523034004 14 214 4.8 14.5 0.00 0.00 0.00 89 1021.7
20220523033504 15 214 4.8 14.5 0.00 0.00 0.00 88 1021.6
20220523033005 15 214 4.8 14.5 0.00 0.00 0.00 87 1021.6
20220523032505 15 212 4.8 12.9 0.00 0.00 0.00 87 1021.6
20220523032005 15 210 6.4 16.1 0.00 0.00 0.00 86 1021.6
20220523031505 15 213 4.8 16.1 0.00 0.00 0.00 86 1021.5
20220523031005 15 221 3.2 12.9 0.00 0.00 0.00 85 1021.4
20220523030504 15 214 1.6 12.9 0.00 0.00 0.00 85 1021.4
20220523030005 15 211 1.6 6.4 0.00 0.00 0.00 84 1021.3
20220523025505 15 214 3.2 9.7 0.00 0.00 0.00 84 1021.3
20220523025005 15 203 1.6 9.7 0.00 0.00 0.00 83 1021.3
20220523024504 15 201 1.6 8.0 0.00 0.00 0.00 83 1021.3
20220523024004 15 219 1.6 8.0 0.00 0.00 0.00 83 1021.3
20220523023504 15 216 1.6 9.7 0.00 0.00 0.00 82 1021.4
20220523023005 15 206 3.2 11.3 0.00 0.00 0.00 82 1021.5
20220523022505 15 204 3.2 11.3 0.00 0.00 0.00 82 1021.6